Temperature
23 24 24 24 24 24 24 24 23 23 23 22 22 22 22 21 20 20 20 20 19 19 18 18 17 17 17 17 17 16 16 16 16 15 15 15 15 15 15 15 15 14 14 14
24 24 24 24 23 23 23 23 23 23 22 23 23 22 22 22 21 20 20 20 20 19 18 17 17 17 17 17 17 16 16 16 16 15 15 15 15 15 15 15 15 15 14 14
24 24 23 23 23 23 23 23 23 23 23 23 23 23 23 22 21 20 20 20 20 19 19 18 17 17 17 17 16 16 16 16 16 15 15 15 15 15 15 15 15 14 14 14
24 23 23 23 23 23 23 23 23 23 23 23 23 23 23 23 22 21 20 19 19 19 18 18 17 17 17 17 16 16 16 16 16 15 15 15 15 15 15 15 15 15 14 14
23 23 23 23 23 23 23 23 23 23 23 23 23 23 23 23 22 22 21 20 19 19 18 18 17 17 17 17 16 16 16 16 16 16 15 15 15 15 15 15 15 15 14 14
23 23 23 23 23 23 22 23 23 23 23 23 23 23 23 23 22 22 21 20 19 19 18 18 17 17 17 16 16 16 16 16 16 16 15 15 15 15 15 15 15 15 14 14
23 23 23 23 23 23 23 23 23 23 23 23 23 22 23 23 22 22 21 20 19 19 18 18 17 17 17 17 16 16 16 16 16 16 15 15 15 15 15 15 15 15 15 15
22 22 23 23 23 23 23 24 23 22 23 23 22 22 23 22 21 20 20 20 19 18 18 18 17 17 17 17 17 17 16 16 16 16 15 15 15 15 15 15 15 15 15 15
23 23 23 22 23 23 23 23 24 24 23 23 23 23 22 22 21 20 20 19 19 18 18 18 17 17 17 17 17 17 16 16 16 16 15 15 15 15 15 15 15 15 14 15
23 22 22 22 22 22 23 23 23 23 22 22 22 22 23 22 21 21 20 19 19 18 18 17 17 17 17 17 17 17 16 16 16 16 16 15 15 15 15 15 15 15 14 14
22 22 22 22 22 23 22 22 23 23 23 22 22 22 23 22 22 21 20 19 19 18 18 17 17 17 17 17 17 17 16 16 16 16 16 15 15 15 15 15 15 15 15 14
22 22 22 22 22 22 22 23 23 22 22 22 22 22 22 22 21 21 20 19 19 18 18 17 17 17 17 17 17 16 16 16 16 16 16 15 15 15 15 15 15 15 15 14
21 22 21 21 21 21 22 22 22 23 23 22 22 22 22 22 21 20 20 19 18 18 17 17 17 16 16 16 16 16 16 16 16 16 15 15 15 15 15 15 15 15 15 14
20 22 22 21 22 22 21 21 21 22 22 22 22 22 22 22 21 20 19 19 18 18 17 17 16 16 16 16 16 16 16 16 16 15 15 15 15 15 15 15 15 15 15 14
20 21 21 21 21 21 21 21 21 21 22 22 22 22 22 22 21 20 19 19 18 18 17 17 16 16 16 16 16 16 15 15 15 15 15 15 15 15 15 15 15 15 14 14
20 20 20 20 20 20 20 20 21 21 21 21 21 21 22 21 20 20 19 18 18 17 17 17 16 16 16 16 16 16 15 15 15 15 15 15 15 15 15 15 15 14 14 14
19 20 20 20 20 20 20 20 21 20 21 21 21 21 21 21 20 19 19 18 18 17 17 16 16 16 16 16 16 16 15 15 15 15 15 15 15 15 15 15 14 14 14 14
19 19 20 20 19 19 20 20 20 20 20 20 20 20 20 20 19 18 18 18 17 17 16 16 16 16 16 16 16 15 15 15 15 15 15 15 14 15 15 14 14 14 14 14
18 19 19 19 19 19 20 19 19 20 19 20 20 19 19 18 19 19 17 17 17 17 16 16 16 16 16 15 15 15 15 15 15 14 14 14 14 14 14 14 14 14 14 14
17 18 19 18 18 19 20 19 18 19 19 19 18 18 18 18 20 20 17 16 16 16 16 16 16 15 15 15 15 15 15 14 14 14 14 14 14 14 14 14 14 14 14 13
17 17 17 18 18 19 19 18 18 19 19 18 17 17 17 18 18 17 16 16 16 16 16 15 15 15 15 15 15 14 14 14 14 14 14 14 14 14 13 13 13 13 13 13
17 17 17 18 18 18 17 17 18 19 18 17 17 17 16 16 16 15 15 15 15 15 15 15 15 15 15 14 14 14 14 14 13 13 13 13 13 13 13 13 13 13 13 12
17 17 18 18 18 17 16 17 16 16 16 16 16 16 15 15 15 15 14 14 14 15 15 15 15 14 14 14 14 14 14 13 13 13 13 13 13 13 13 12 12 12 12 12
16 15 16 16 16 16 15 15 14 15 15 15 15 15 14 14 14 14 14 14 14 14 14 14 14 14 14 14 14 13 13 13 13 13 13 13 12 12 12 12 12 12 11 11
15 14 15 16 16 15 14 14 14 14 14 14 14 14 14 14 14 14 14 14 14 14 14 14 14 14 13 14 14 13 13 13 13 12 12 12 12 12 12 11 11 11 11 11
14 14 15 15 15 15 15 14 13 13 13 13 13 13 13 13 13 13 13 13 13 13 13 13 13 13 13 13 13 13 13 12 12 12 12 12 12 11 11 11 11 11 11 11
Wind_Speed
4 6 6 5 5 2 3 3 3 2 3 2 2 1 2 4 5 5 5 4 4 4 4 5 5 5 4 4 4 4 4 4 3 3 2 2 2 2 2 2 3 3 3 4
6 5 4 3 5 5 5 5 3 2 3 2 1 1 1 3 5 5 5 5 5 5 5 5 5 5 5 5 4 4 4 3 3 2 2 2 2 1 2 2 3 3 3 4
7 2 4 6 6 6 5 5 3 2 3 4 2 1 2 3 3 4 4 5 5 6 6 6 6 6 5 5 5 3 3 3 3 3 2 3 3 2 2 2 2 2 3 3
5 3 5 7 6 6 5 3 5 4 4 2 3 1 1 3 3 3 4 5 6 6 7 7 6 6 6 5 4 4 4 3 3 3 3 3 3 2 2 2 2 3 3 3
5 5 5 6 4 5 2 2 4 5 5 5 4 4 1 2 2 3 4 5 6 7 8 8 7 6 6 5 5 4 4 3 3 3 3 3 3 2 2 2 3 3 3 3
4 3 4 4 3 4 4 4 4 4 5 5 3 4 1 1 2 2 2 4 6 7 8 8 7 6 6 5 5 4 4 4 3 3 3 3 3 3 3 3 3 2 2 2
7 6 4 4 5 6 7 6 4 5 5 2 2 3 1 1 1 2 2 3 5 6 7 8 7 7 6 6 5 5 5 4 4 4 4 4 4 4 4 3 3 2 2 2
8 7 6 5 6 5 7 7 4 3 3 1 3 3 1 2 1 0 1 2 4 6 7 7 7 7 7 6 6 5 5 5 4 4 4 4 4 3 3 2 2 2 2 2
6 5 4 4 4 5 6 6 4 4 3 4 3 2 2 1 1 1 2 3 4 5 6 7 7 7 7 7 6 6 5 5 5 5 4 4 4 4 3 3 2 2 2 2
4 5 4 3 5 2 4 4 5 5 4 4 3 4 2 2 1 1 2 2 3 5 6 6 6 6 6 6 6 6 5 5 5 5 4 3 4 4 3 3 3 3 3 3
6 6 5 6 7 7 6 7 6 5 5 4 4 2 1 1 1 2 2 3 3 5 6 6 6 6 6 6 6 6 5 5 5 5 4 4 4 4 4 4 3 3 3 3
5 5 5 5 3 3 6 7 8 7 6 6 5 2 3 1 1 1 2 3 4 4 5 5 6 6 6 6 6 6 6 5 5 5 5 4 4 5 5 4 4 4 4 3
4 5 6 6 6 6 6 6 8 7 7 7 7 4 4 2 1 1 1 2 3 4 5 5 6 6 6 6 5 5 5 5 4 5 5 5 5 5 5 5 4 4 4 4
4 6 8 7 4 4 6 7 8 9 8 9 10 8 5 4 3 2 2 2 3 4 5 5 6 6 6 6 5 5 5 4 4 5 5 5 5 5 5 5 4 4 4 4
5 7 7 6 5 6 8 9 10 12 11 11 9 9 8 6 5 4 3 3 4 4 5 5 6 6 6 5 5 5 5 5 5 5 5 4 4 4 5 5 5 4 4 4
4 6 6 7 6 7 10 11 12 13 12 12 11 11 8 6 5 4 4 4 5 4 5 5 5 6 6 6 5 5 5 5 5 5 5 4 4 4 4 4 4 4 4 4
4 6 7 8 6 7 11 11 12 11 11 11 12 9 6 6 6 6 5 5 6 5 5 5 5 5 6 6 6 6 5 5 5 5 5 5 5 5 4 4 4 4 4 4
7 8 6 6 7 11 4 1 5 7 7 8 8 7 7 7 7 5 4 5 5 5 5 5 5 5 5 5 5 5 5 5 5 4 4 4 5 5 4 4 4 4 4 4
10 9 7 7 9 9 6 5 5 7 7 5 6 5 4 5 6 6 4 4 5 5 5 5 5 5 5 5 5 5 5 5 5 4 4 5 5 5 5 5 4 4 4 4
7 10 9 8 9 9 5 3 3 5 7 2 3 3 3 4 6 4 3 4 4 4 4 4 4 4 4 4 5 5 5 5 5 4 4 4 5 5 5 5 4 4 4 4
7 8 12 12 11 7 2 2 5 7 3 2 3 3 4 5 4 2 2 3 3 3 3 4 5 4 4 4 5 5 5 5 4 4 4 4 4 5 4 4 3 4 4 4
8 7 10 10 11 9 3 5 6 3 1 2 3 4 5 4 3 2 1 2 2 2 4 5 5 4 4 5 5 4 4 3 3 4 4 4 4 4 4 4 4 4 4 4
7 6 5 7 6 1 3 4 3 3 3 3 4 4 4 4 4 3 3 2 2 3 4 5 5 5 5 5 5 5 3 3 4 4 4 4 4 4 4 4 4 4 4 4
5 5 6 7 7 5 5 4 4 4 4 4 4 4 4 5 5 4 4 3 3 3 4 4 5 6 5 5 5 4 3 3 4 5 4 4 4 3 3 3 4 4 4 4
6 5 6 9 7 5 6 6 5 5 5 5 5 5 6 6 6 5 5 4 4 3 4 4 5 6 6 5 5 4 4 4 4 4 4 4 4 3 3 3 2 4 4 3
7 8 8 8 7 6 7 6 6 6 6 6 6 6 6 6 6 6 5 5 4 4 4 4 5 5 6 5 5 4 4 5 4 4 4 3 3 3 3 3 2 1 1 1
Wind_Direction
186 195 196 195 207 201 181 183 169 147 151 181 202 238 196 182 196 206 203 198 196 182 167 166 168 163 161 162 165 155 150 139 133 135 135 117 87 75 71 62 57 65 84 92
181 201 203 182 180 194 202 202 192 151 152 197 198 264 208 193 210 218 217 212 203 188 172 164 170 169 173 168 168 164 155 147 144 136 122 112 104 88 77 73 78 78 92 99
203 174 185 187 186 199 212 224 210 188 167 193 239 220 170 169 197 214 226 225 209 197 190 177 176 175 175 175 175 175 169 162 157 146 131 132 129 129 127 108 87 80 90 101
208 190 183 197 207 221 223 222 220 212 226 229 243 272 151 169 176 203 218 219 212 200 195 187 181 181 180 180 180 181 167 163 159 162 162 165 164 145 126 116 108 114 107 107
196 199 202 209 216 219 219 193 209 225 243 251 236 254 184 159 218 225 221 218 213 202 197 194 190 186 182 177 179 175 167 164 164 169 162 178 160 137 131 130 128 123 113 111
212 202 225 225 202 195 166 169 178 215 236 240 237 241 253 192 270 261 222 212 208 200 192 190 185 181 176 172 173 174 173 168 167 177 180 180 164 162 158 156 146 141 130 122
205 201 193 202 187 177 204 219 216 210 212 215 162 230 258 40 296 276 247 195 191 188 183 182 180 180 176 174 175 177 174 174 175 180 185 187 182 184 183 177 165 163 148 136
212 205 194 204 222 212 210 229 244 248 238 196 184 223 111 66 37 318 196 168 167 173 177 178 179 179 179 178 176 178 177 180 182 187 187 187 184 189 188 187 186 180 158 140
216 203 170 199 219 223 207 220 253 262 254 249 205 190 182 145 110 110 115 142 167 174 177 178 178 181 182 182 180 182 182 184 187 191 191 190 188 189 188 190 191 191 174 155
234 212 182 180 187 203 242 206 213 233 243 240 220 222 211 160 160 159 157 167 175 177 176 176 176 180 183 184 184 186 191 191 188 194 195 194 198 193 194 191 184 183 174 168
230 220 190 190 210 208 194 206 219 229 247 256 245 199 95 173 187 195 190 192 184 180 181 178 176 176 174 174 179 184 190 192 191 196 193 191 192 191 189 187 182 185 179 175
218 235 221 208 208 253 235 230 225 234 230 241 261 250 105 155 174 176 186 180 177 178 178 176 172 167 168 173 179 183 186 189 191 193 193 192 188 189 190 188 188 188 182 180
197 225 222 204 198 202 218 224 228 242 244 240 243 225 140 158 167 164 175 177 174 172 172 171 169 171 176 180 182 182 181 182 184 189 193 194 191 191 193 191 187 190 189 185
230 236 242 242 254 222 220 217 218 228 240 243 243 247 228 227 233 232 217 196 180 174 170 170 173 179 182 184 184 182 179 179 178 181 188 193 192 192 196 191 188 194 192 191
223 241 246 256 258 245 246 239 228 232 245 253 253 253 251 250 246 241 220 195 177 178 178 180 183 182 183 183 183 182 180 180 180 181 188 194 190 183 189 188 194 195 192 197
228 233 237 242 230 233 247 246 240 241 246 248 252 257 260 258 240 231 211 195 189 190 196 196 194 188 188 187 185 185 186 186 184 185 189 185 182 177 183 187 190 191 195 199
217 224 242 247 231 244 250 245 235 233 234 237 248 256 254 247 235 230 219 205 204 206 204 201 201 196 193 191 190 187 190 188 187 189 188 185 185 180 182 182 182 187 193 193
233 230 239 247 235 244 250 201 221 227 240 247 255 261 254 248 242 232 231 222 217 212 208 204 198 193 195 190 185 183 182 185 188 188 186 183 184 182 180 181 188 198 196 190
232 225 231 236 244 254 250 234 227 229 242 251 249 255 260 249 230 218 226 235 230 222 210 203 195 188 183 180 180 178 179 183 188 192 194 187 186 183 183 185 190 194 192 190
210 220 228 231 241 248 241 199 216 233 239 218 232 239 232 218 228 231 243 247 234 219 201 193 183 177 174 171 176 182 185 186 192 198 198 191 187 183 189 194 192 186 189 191
191 209 223 232 242 249 243 173 192 226 247 159 212 222 211 222 262 293 272 238 228 209 189 178 171 170 172 168 172 182 186 193 193 188 184 184 182 184 185 186 189 188 186 186
214 212 220 227 236 241 154 178 212 259 335 211 227 229 231 246 275 277 259 231 216 199 184 173 172 173 169 167 172 182 192 195 184 177 178 182 181 181 182 181 188 191 187 191
226 232 233 229 239 279 195 225 258 279 247 243 242 239 233 241 255 258 252 240 218 199 185 181 178 176 176 177 184 189 185 176 180 180 182 184 182 183 189 190 190 193 196 203
236 252 243 247 246 243 239 242 257 255 255 261 262 257 249 249 251 248 246 240 228 215 192 189 187 187 189 189 193 194 179 178 183 185 187 187 184 185 189 197 202 202 206 210
247 232 239 248 249 255 250 247 251 254 258 254 253 251 252 255 252 248 244 241 234 225 207 199 200 199 198 192 191 188 179 184 190 190 190 191 188 189 194 197 212 217 217 222
234 235 238 247 248 252 258 257 259 254 254 249 247 250 253 248 247 248 243 238 233 224 212 206 203 204 201 193 188 183 182 190 195 198 196 195 195 195 198 194 186 54 239 149
Height
1523 1522 1522 1521 1522 1522 1524 1526 1528 1528 1529 1531 1531 1531 1531 1534 1536 1536 1537 1539 1540 1541 1543 1544 1545 1546 1547 1548 1549 1550 1550 1551 1551 1551 1552 1552 1552 1552 1552 1552 1551 1551 1551 1551
1521 1522 1521 1522 1523 1524 1525 1527 1527 1528 1529 1529 1529 1529 1529 1532 1533 1535 1536 1537 1538 1540 1542 1543 1544 1545 1547 1548 1549 1550 1550 1551 1551 1551 1552 1552 1552 1552 1552 1552 1552 1552 1552 1552
1519 1520 1521 1522 1524 1524 1525 1525 1526 1528 1529 1528 1529 1528 1527 1529 1532 1534 1535 1536 1537 1539 1540 1542 1544 1545 1546 1547 1548 1549 1550 1550 1551 1551 1551 1552 1552 1553 1553 1553 1553 1553 1553 1553
1519 1520 1522 1522 1522 1522 1525 1523 1525 1527 1528 1529 1528 1533 1525 1525 1529 1531 1533 1534 1535 1537 1539 1541 1542 1544 1545 1546 1548 1549 1549 1550 1550 1551 1551 1552 1553 1553 1554 1554 1554 1554 1554 1554
1519 1519 1520 1521 1521 1521 1523 1523 1524 1525 1526 1527 1526 1529 1525 1523 1525 1527 1530 1532 1533 1535 1537 1539 1541 1543 1544 1545 1547 1548 1549 1549 1550 1550 1551 1552 1553 1553 1554 1554 1554 1555 1555 1555
1517 1520 1520 1519 1521 1522 1523 1525 1525 1524 1524 1532 1526 1529 1528 1522 1523 1524 1527 1529 1531 1533 1536 1538 1540 1542 1543 1544 1545 1546 1548 1548 1549 1550 1551 1552 1552 1553 1554 1554 1555 1555 1555 1555
1518 1518 1519 1520 1520 1522 1522 1525 1530 1532 1532 1530 1524 1528 1526 1521 1523 1524 1525 1527 1529 1531 1534 1536 1538 1540 1541 1543 1544 1545 1547 1548 1549 1549 1550 1551 1552 1553 1553 1554 1555 1555 1555 1556
1519 1520 1516 1517 1517 1518 1519 1520 1529 1536 1533 1527 1525 1527 1522 1522 1524 1525 1526 1527 1528 1530 1532 1534 1536 1538 1540 1541 1543 1544 1546 1547 1548 1549 1550 1551 1551 1552 1553 1553 1554 1555 1555 1555
1515 1517 1515 1517 1517 1516 1518 1518 1516 1520 1523 1527 1523 1522 1520 1521 1523 1524 1525 1526 1528 1529 1531 1533 1535 1537 1539 1540 1542 1543 1545 1546 1547 1548 1549 1550 1551 1551 1552 1553 1554 1554 1555 1555
1510 1516 1515 1517 1517 1518 1515 1515 1519 1522 1530 1531 1527 1524 1521 1520 1521 1522 1524 1525 1527 1529 1530 1532 1534 1535 1537 1539 1540 1542 1543 1545 1546 1547 1547 1548 1549 1550 1551 1552 1553 1553 1554 1554
1511 1514 1517 1516 1516 1515 1518 1518 1516 1517 1519 1526 1529 1525 1514 1517 1519 1521 1523 1524 1526 1527 1529 1531 1532 1534 1536 1537 1539 1540 1542 1543 1544 1545 1546 1547 1548 1549 1550 1551 1551 1552 1553 1554
1512 1511 1514 1514 1514 1515 1513 1512 1514 1521 1521 1519 1522 1525 1515 1517 1519 1521 1522 1524 1525 1526 1528 1529 1531 1532 1534 1535 1537 1538 1539 1541 1542 1543 1544 1545 1546 1547 1548 1549 1550 1551 1552 1553
1512 1513 1517 1518 1519 1516 1514 1513 1513 1513 1514 1517 1522 1522 1515 1517 1519 1520 1521 1523 1524 1525 1526 1528 1529 1530 1532 1534 1535 1536 1537 1538 1540 1541 1542 1543 1545 1546 1547 1548 1549 1550 1551 1551
1513 1510 1513 1517 1511 1510 1513 1515 1514 1514 1515 1515 1513 1514 1513 1515 1517 1519 1520 1521 1523 1524 1525 1526 1527 1529 1530 1532 1533 1534 1535 1536 1537 1539 1540 1541 1543 1544 1545 1546 1547 1548 1549 1550
1512 1510 1509 1509 1510 1511 1512 1513 1513 1513 1509 1511 1509 1510 1510 1512 1515 1517 1519 1520 1521 1523 1524 1525 1526 1527 1528 1530 1531 1532 1533 1534 1535 1537 1538 1539 1541 1542 1543 1544 1545 1546 1547 1548
1511 1511 1511 1512 1511 1512 1512 1510 1510 1510 1509 1509 1509 1510 1509 1511 1514 1516 1517 1518 1519 1520 1521 1523 1524 1525 1526 1527 1529 1530 1531 1532 1534 1535 1536 1537 1538 1540 1541 1542 1543 1544 1545 1546
1511 1510 1512 1510 1509 1511 1510 1505 1505 1506 1505 1506 1507 1506 1508 1509 1511 1513 1515 1516 1517 1518 1519 1520 1522 1522 1524 1525 1526 1527 1529 1531 1532 1533 1534 1535 1536 1537 1539 1540 1541 1542 1543 1543
1511 1510 1509 1509 1511 1516 1503 1501 1502 1503 1504 1504 1504 1505 1507 1508 1510 1511 1512 1513 1514 1516 1517 1518 1519 1520 1522 1523 1524 1525 1527 1528 1530 1531 1532 1533 1534 1535 1536 1537 1538 1539 1541 1541
1510 1509 1509 1508 1509 1504 1502 1501 1502 1502 1502 1503 1503 1504 1506 1507 1507 1508 1510 1511 1512 1513 1514 1516 1517 1518 1519 1520 1522 1523 1524 1526 1527 1528 1529 1530 1531 1532 1534 1535 1536 1537 1538 1538
1509 1507 1508 1507 1509 1506 1498 1498 1501 1502 1501 1502 1503 1504 1505 1505 1503 1504 1507 1508 1509 1510 1512 1513 1515 1516 1517 1518 1519 1521 1522 1523 1524 1525 1526 1528 1529 1530 1531 1532 1533 1534 1535 1536
1506 1507 1506 1504 1503 1496 1495 1499 1501 1504 1498 1501 1502 1503 1504 1505 1504 1505 1505 1506 1507 1508 1509 1510 1512 1513 1514 1516 1517 1518 1519 1520 1522 1523 1524 1525 1526 1527 1528 1529 1530 1531 1532 1533
1499 1501 1502 1500 1501 1499 1497 1499 1499 1497 1498 1500 1501 1502 1503 1504 1504 1504 1504 1504 1504 1505 1506 1508 1509 1510 1512 1513 1514 1516 1517 1518 1519 1520 1521 1522 1523 1524 1526 1526 1527 1528 1529 1530
1498 1496 1494 1495 1495 1494 1496 1496 1497 1498 1498 1499 1500 1501 1501 1502 1501 1502 1502 1502 1502 1503 1504 1505 1507 1508 1509 1511 1512 1513 1514 1515 1516 1518 1519 1520 1521 1522 1523 1524 1525 1525 1526 1527
1497 1499 1497 1495 1493 1495 1496 1496 1496 1497 1498 1498 1499 1499 1499 1499 1499 1499 1499 1500 1500 1501 1501 1503 1504 1505 1506 1508 1509 1511 1512 1513 1514 1515 1516 1517 1518 1519 1519 1520 1521 1522 1523 1524
1496 1497 1494 1492 1492 1493 1493 1493 1494 1495 1495 1495 1496 1496 1497 1497 1496 1497 1497 1497 1497 1498 1498 1500 1501 1501 1503 1504 1506 1507 1508 1510 1511 1512 1513 1514 1515 1515 1516 1517 1518 1518 1520 1520
1495 1494 1492 1489 1489 1490 1490 1490 1491 1492 1491 1492 1492 1492 1493 1493 1493 1493 1494 1494 1494 1494 1495 1496 1497 1498 1500 1501 1502 1504 1505 1506 1508 1509 1510 1510 1511 1512 1512 1513 1514 1515 1516 1516